Location: Recife
(8.0585°S, 34.8848°W)
Time: 20:45:03
(UTC-03:00)

Explorer 11/Cluster Stage 4 - Pass Details

Date: 16 April 2026
Orbit: 463 x 1174 km, 28.8° (Epoch: 16 May)

Event Time Altitude Azimuth Distance (km) Brightness Sun altitude
Rises 19:14:46 0° 298° (WNW) 3,535 10.9 -29.7°
Reaches altitude 10° 19:17:37 10° 297° (WNW) 2,474 9.9 -30.4°
Enters shadow 19:22:02 50° 291° (WNW) 957 7.2 -31.5°
Maximum altitude 19:23:28 83° 209° (SSW) 734 - -31.8°
Drops below altitude 10° 19:28:10 10° 122° (ESE) 2,003 - -33.0°
Sets 19:30:16 0° 121° (ESE) 2,817 - -33.5°
